Louisville, KY

9:27 AM EDT on July 21, 2017 (GMT -0400)
Louisville International-Standiford

Weather History for KSDF - January, 2015

Change the Weather History Date:

Sunday, January 18, 2015

  Actual Average Record
Temperature  
Mean Temperature 44 °F 35 °F  
Max Temperature 53 °F 43 °F 72 °F (1929)
Min Temperature 35 °F 27 °F -16 °F (1994)
Degree Days  
Heating Degree Days 21 30  
Month to date heating degree days 605 540  
Since 1 July heating degree days 2227 2116  
Cooling Degree Days 0 0  
Month to date cooling degree days 0 0  
Year to date cooling degree days 0 0  
Moisture  
Dew Point 32 °F    
Average Humidity 64    
Maximum Humidity 92    
Minimum Humidity 35    
Precipitation  
Precipitation 0.06 in 0.09 in 3.36 in (1876)
Month to date precipitation 0.62 1.88  
Year to date precipitation 0.62 1.88  
Snow  
Snow 0.00 in 0.10 in 3.00 in (1915)
Month to date snowfall T 1.9  
Since 1 July snowfall 3.7 4.7  
Snow Depth 0.00 in    
Sea Level Pressure  
Sea Level Pressure 29.95 in    
Wind  
Wind Speed 14 mph (WSW)    
Max Wind Speed 28 mph    
Max Gust Speed 36 mph    
Visibility 9 miles    
Events Rain    
T = Trace of Precipitation, MM = Missing Value Source: NWS Daily Summary

Daily Weather History Graph

Daily Weather History Graph

Search for Another Location

Airport or City:

Trip Planner

Search our weather history database for the weather conditions in past years. The results will help you decide how hot, cold, wet, or windy it might be!

Date:

Astronomy

Jan. 18, 2015 Rise Set
Actual Time 7:57 AM EST 5:49 PM EST
Civil Twilight 7:28 AM EST 6:18 PM EST
Nautical Twilight 6:56 AM EST 6:50 PM EST
Astronomical Twilight 6:24 AM EST 7:22 PM EST
Moon 5:52 AM EST (1/18) 4:12 PM EST (1/18)
Length of Visible Light 10h 50m
Length of Day
9h 52m
Waning Crescent, 5% of the Moon is Illuminated
Jan 18
Waning Crescent
Jan 20
New
Jan 26
First Quarter
Feb 3
Full
Feb 11
Last Quarter

Hourly Weather History & Observations

Time (EST) Temp. Windchill Dew Point Humidity Pressure Visibility Wind Dir Wind Speed Gust Speed Precip Events Conditions
12:56 AM 51.1 °F - 30.0 °F 44% 29.85 in 10.0 mi WSW 26.5 mph 36.8 mph 0.00 in Rain Light Rain
1:56 AM 50.0 °F - 33.1 °F 52% 29.84 in 10.0 mi WSW 19.6 mph 29.9 mph 0.00 in Rain Light Rain
2:46 AM 44.1 °F 36.5 °F 37.9 °F 79% 29.88 in 5.0 mi West 17.3 mph - 0.01 in Rain Rain
2:56 AM 43.0 °F 36.0 °F 39.0 °F 86% 29.90 in 5.0 mi West 13.8 mph - 0.03 in Rain Rain
3:23 AM 42.1 °F 40.2 °F 37.9 °F 85% 29.88 in 9.0 mi West 3.5 mph - 0.03 in Rain Light Rain
3:56 AM 41.0 °F 37.1 °F 37.9 °F 89% 29.88 in 10.0 mi SW 5.8 mph - 0.03 in   Overcast
4:56 AM 41.0 °F 37.1 °F 37.9 °F 89% 29.89 in 9.0 mi South 5.8 mph - N/A   Mostly Cloudy
5:56 AM 41.0 °F 35.2 °F 37.9 °F 89% 29.90 in 9.0 mi SW 9.2 mph - N/A   Overcast
6:35 AM 41.0 °F 35.2 °F 37.9 °F 89% 29.92 in 8.0 mi WSW 9.2 mph - N/A   Mostly Cloudy
6:50 AM 41.0 °F 33.9 °F 37.4 °F 87% 29.92 in 8.0 mi WSW 12.7 mph - N/A   Mostly Cloudy
6:56 AM 39.9 °F 33.9 °F 37.0 °F 89% 29.93 in 8.0 mi WSW 9.2 mph - N/A   Mostly Cloudy
7:56 AM 39.2 °F 32.5 °F 35.6 °F 87% 29.94 in 7.0 mi West 10.4 mph - N/A   Partly Cloudy
8:56 AM 39.9 °F 32.5 °F 34.0 °F 79% 29.96 in 10.0 mi WSW 12.7 mph - N/A   Clear
9:56 AM 42.1 °F 33.6 °F 34.0 °F 73% 29.98 in 10.0 mi West 18.4 mph 25.3 mph N/A   Partly Cloudy
10:56 AM 44.1 °F 36.2 °F 33.1 °F 65% 29.98 in 10.0 mi WSW 18.4 mph - N/A   Partly Cloudy
11:56 AM 46.9 °F - 32.0 °F 56% 29.97 in 10.0 mi West 17.3 mph 23.0 mph N/A   Partly Cloudy
12:56 PM 50.0 °F - 30.0 °F 46% 29.94 in 10.0 mi West 20.7 mph 24.2 mph N/A   Partly Cloudy
1:56 PM 51.1 °F - 28.0 °F 41% 29.94 in 10.0 mi West 20.7 mph 28.8 mph N/A   Partly Cloudy
2:56 PM 51.8 °F - 28.4 °F 41% 29.94 in 10.0 mi WSW 24.2 mph 31.1 mph N/A   Partly Cloudy
3:56 PM 52.0 °F - 28.0 °F 40% 29.96 in 10.0 mi WSW 17.3 mph - N/A   Partly Cloudy
4:56 PM 51.1 °F - 26.1 °F 38% 29.98 in 10.0 mi West 18.4 mph 25.3 mph N/A   Scattered Clouds
5:56 PM 46.9 °F - 27.0 °F 46% 30.00 in 10.0 mi West 11.5 mph - N/A   Scattered Clouds
6:56 PM 45.0 °F 39.7 °F 27.0 °F 49% 30.01 in 10.0 mi West 10.4 mph - N/A   Scattered Clouds
7:56 PM 44.1 °F 38.1 °F 28.0 °F 53% 30.02 in 10.0 mi West 11.5 mph - N/A   Scattered Clouds
8:56 PM 39.0 °F 34.0 °F 27.0 °F 62% 30.03 in 10.0 mi West 6.9 mph - N/A   Scattered Clouds
9:56 PM 39.9 °F 33.9 °F 27.0 °F 60% 30.04 in 10.0 mi West 9.2 mph - N/A   Clear
10:56 PM 37.9 °F 33.5 °F 26.1 °F 62% 30.06 in 10.0 mi West 5.8 mph - N/A   Clear
11:56 PM 36.0 °F 32.1 °F 26.1 °F 67% 30.06 in 10.0 mi SE 4.6 mph - N/A   Clear